CAPE
0 0 0 0 0 0 0 0 0 0 0 10 5 1 25 273 665 989 1300 1422 952 598 550 602 721 756 455 284 308 443 678 804 893 933 919 820 384 152 117 49 37 66 79 129 199 586 588 552 680 675 688 531 607 575 536 523 716 979 1073 1202 1226 1353 1487 1474 1286 997 883 758 744 898 1252 1015 1076 892 1053 1080 1092 1190 1155 1310 1920 2514 2489 2849 3080 3858
0 0 0 0 0 0 0 0 0 0 5 8 5 0 2 488 730 694 1025 1111 890 666 767 725 658 611 562 423 454 490 614 633 598 880 1072 958 181 94 103 116 112 160 97 139 154 480 568 530 722 743 660 670 562 568 583 622 949 1020 1064 1160 1287 1262 1374 1497 1472 1184 956 820 722 753 878 902 940 923 1125 870 719 830 1102 1765 2035 2548 2343 2547 2851 3538
0 0 0 0 0 0 0 0 0 1 0 0 0 0 8 296 729 575 898 981 1033 631 608 615 601 787 685 652 533 488 514 591 753 965 1251 1144 299 156 212 182 258 197 173 161 170 440 547 596 806 726 662 756 502 578 646 695 912 961 1036 1230 1393 1332 1336 1427 1308 1088 1148 954 808 708 682 661 796 876 967 741 863 1164 1699 1740 1914 2277 2067 2456 2323 3321
0 0 0 0 0 0 0 0 0 0 0 0 0 0 0 132 654 529 780 980 1126 456 620 527 494 577 704 782 748 572 613 701 949 1682 1428 1150 739 816 206 134 201 184 242 176 185 495 543 794 779 709 694 737 618 601 759 712 882 900 1069 1202 1403 1350 1361 1348 1589 1938 1368 1251 785 739 768 767 839 877 1052 747 899 1456 1640 1623 1782 1920 1930 2302 2438 2810
0 0 0 0 0 0 0 0 0 0 0 0 0 0 0 7 643 645 630 934 1102 757 592 416 518 646 1306 1224 1030 898 1189 1364 1294 1224 1061 1010 1125 1116 736 173 116 114 236 212 190 442 522 742 755 685 733 769 834 773 860 926 913 988 1166 1228 1363 1373 1337 1474 1931 2098 1256 2553 1898 1817 1111 1325 1362 1064 991 1049 1160 1290 1521 1403 1679 1868 1941 2259 2207 2650
0 0 0 0 0 0 0 0 0 0 0 0 0 0 0 0 336 650 568 752 556 553 646 576 358 408 717 1288 1232 1698 1176 1179 1185 1020 941 838 746 627 930 435 354 230 92 154 181 188 512 759 664 880 773 831 1031 906 864 1073 1037 980 1121 1290 1176 1345 1312 1687 1487 1851 1914 2429 1991 1438 1282 1174 997 1144 1046 922 1074 917 1185 1176 1467 1673 1867 1993 2216 2223
0 0 0 0 0 0 0 0 0 0 0 0 0 0 0 0 0 194 783 253 367 517 598 520 58 399 665 815 974 1340 1276 1649 1279 1036 1032 1038 590 967 772 848 436 363 248 102 149 135 577 695 755 1015 914 1058 1104 933 939 1132 1035 1180 1068 1392 1108 1474 1079 1495 1430 2610 2387 2372 2599 2170 1669 1323 961 1197 1230 1066 844 877 980 859 1688 1524 1644 1759 2219 2160
0 0 0 0 0 0 0 0 0 0 0 0 0 0 0 0 0 7 12 0 45 388 665 528 274 375 442 538 668 1059 1073 985 968 1076 1112 1183 1070 949 566 678 767 748 310 192 212 86 172 758 771 1006 918 942 1034 899 870 1074 904 1300 1290 1406 1131 1719 1326 1389 1523 2396 2200 2298 2474 2589 2040 1894 1553 1384 1294 1056 831 893 881 1136 1703 1552 1439 1760 1809 2019
0 0 0 0 0 0 0 0 0 0 0 0 0 0 0 0 0 0 0 0 0 85 406 504 301 325 341 427 670 700 667 466 600 769 811 854 1186 1205 813 600 721 761 590 384 289 339 152 602 802 956 923 937 1024 837 827 1058 1332 1458 1414 1616 1121 1883 1575 1302 1617 2412 2309 2564 2379 2528 1991 2125 1738 1858 1634 1757 1331 866 1755 1264 1679 1703 1454 1627 1685 2235
0 0 0 0 0 0 0 0 0 0 0 0 0 0 0 0 0 0 0 0 0 0 0 370 173 417 343 410 299 662 752 642 861 966 738 688 848 1401 1368 1164 1270 1088 528 493 483 208 88 599 866 909 906 934 1023 931 821 824 1675 1548 1436 1894 1381 1666 2010 1261 1904 2400 2322 2559 2734 2339 1847 1790 1627 1914 1771 1475 759 1165 1207 1250 1374 1516 1420 1698 1940 2031
0 0 0 0 0 0 0 0 0 0 0 0 0 0 0 0 0 0 0 0 0 0 0 0 101 386 494 268 239 364 391 579 784 1154 949 800 1014 1222 1455 1451 1304 1532 1558 771 443 250 203 526 760 814 892 906 962 819 721 1147 1838 1852 1740 2079 1607 1740 2002 1246 2066 2123 2481 2128 2526 2001 1916 1696 1263 1500 1286 1406 1642 1491 1793 1403 1332 1528 1554 1491 2044 2201
0 0 0 0 0 0 0 0 0 0 0 0 0 0 0 0 0 0 0 0 0 0 0 0 5 369 106 298 477 586 876 777 762 788 828 574 628 770 1075 1505 1427 1362 1425 639 670 974 490 52 430 724 969 921 888 851 710 1210 1909 1917 1879 2195 1760 1669 1997 1346 2204 1920 2595 1970 2397 1732 2165 1400 1210 1441 1250 1200 2014 1646 1706 1528 2255 1800 1823 1376 1562 1965
0 0 0 0 0 0 0 0 0 0 0 0 0 0 0 0 0 0 0 0 0 0 0 0 302 628 591 508 580 778 937 897 830 834 744 710 648 718 724 1210 1360 1218 1219 1456 1369 1074 533 273 175 437 836 885 996 890 823 897 1784 1964 1937 2176 2030 1544 2424 1638 2354 1868 2393 2106 2051 1653 2082 1181 1232 1532 1074 1292 1867 1859 1768 2027 2224 1957 1973 2056 1551 1572
0 0 0 0 0 0 0 0 0 0 0 0 0 0 2 1 3 0 3 0 0 3 1 143 491 625 662 782 872 810 826 1038 1232 1354 1270 1293 1132 1520 1428 1472 1396 1380 1208 1337 1491 1054 786 1022 306 328 738 712 844 918 968 1264 1758 2138 2105 2204 2347 1535 2568 1969 2264 1875 2177 1979 1962 1833 1766 1618 1246 1985 876 1490 1589 1772 1780 2022 2124 2134 2003 1701 1992 1727
0 0 0 0 0 0 0 0 0 0 0 0 0 0 0 0 1 4 16 12 7 4 237 262 603 493 564 616 834 911 1055 867 1163 1227 1255 1090 1133 1282 1440 1330 1282 1405 1812 1221 1260 1322 1481 1334 792 533 523 683 727 845 1136 1219 1585 2085 2107 2363 2528 1914 2493 2272 2039 2122 1997 1868 1963 2027 1749 1888 1618 1505 1284 1274 1508 1500 1836 1903 1862 1938 1956 1779 1464 1565
0 0 0 0 0 0 0 0 0 0 0 0 0 0 0 0 10 0 2 3 3 0 154 458 250 400 516 568 784 883 747 1140 1204 1203 1160 1326 1427 1619 1454 1417 1564 1977 2119 2306 1918 1870 1420 1132 1317 637 678 700 837 889 1081 1421 1486 1787 2152 2385 2580 2242 2448 2715 2100 2204 2042 1776 2035 2093 1750 1983 2257 2051 1955 1918 1712 1422 1652 1694 1659 1594 1340 1495 1211 1024
0 0 0 0 0 0 0 0 0 0 0 0 0 0 0 0 0 2 23 1 0 10 595 742 581 656 636 609 712 720 1085 987 1233 1201 1099 1112 1334 1530 1553 1518 1450 1678 2161 2379 2223 1888 1555 1477 1425 929 512 380 669 803 878 1371 1774 2010 2245 2264 2622 2566 2515 2826 2717 2066 2142 1758 2137 2055 2010 2155 2153 2159 1787 1955 1932 2050 1454 1539 1461 1407 1266 1160 1092 896
0 0 0 0 0 0 0 0 0 0 0 0 0 0 0 0 0 0 0 0 0 0 508 398 428 399 428 268 363 589 328 840 761 856 1096 1089 1002 1018 1215 1220 1176 1631 2021 2264 2605 2522 2233 1693 890 969 943 697 943 692 1063 1617 1769 2288 2480 2102 2671 2654 2542 2679 2863 2557 2200 2094 1883 2156 2234 2243 2118 2079 1857 1688 1797 1718 1518 1377 1361 1147 874 998 1473 965
0 0 0 0 0 0 0 0 0 0 0 0 0 0 0 0 0 1 0 0 0 19 196 406 78 158 111 74 332 256 251 244 425 421 771 816 1010 921 917 1089 1145 1255 1474 1930 2378 2249 1990 1553 1505 1252 1715 1950 996 656 1230 1548 1683 1990 2261 1941 1794 2302 2443 2595 2831 2612 2286 2372 1936 2126 2196 2260 2254 1887 1790 1654 1538 1370 1111 956 1181 971 836 632 599 1095
0 0 0 0 0 0 0 0 0 0 0 0 0 0 0 0 0 0 2 0 0 0 277 193 324 346 413 355 364 307 533 441 387 468 732 869 708 1086 994 1130 1180 1194 1283 1757 1793 1413 1578 1839 2204 2312 2229 2300 1353 633 911 1094 1417 1710 1971 1492 1444 1904 2091 2261 2231 2421 2421 2286 2084 1945 2102 2114 2136 1939 1822 1487 1403 1284 1075 902 1032 734 573 650 503 388
0 0 0 0 0 0 0 0 0 0 0 0 0 0 0 0 0 0 0 0 0 0 58 208 221 269 368 426 455 482 510 407 342 466 719 797 924 739 1259 1329 1260 1172 1296 1325 1523 1364 1708 2027 1832 1736 2042 2141 2035 1342 1254 981 669 957 869 1054 1534 1589 2172 1976 1715 1947 1771 1772 2092 1953 1868 2009 2030 1852 2074 1639 1267 1082 906 729 715 758 686 766 496 416
0 0 0 0 0 0 0 0 0 0 0 0 0 0 0 0 0 0 0 0 2 0 0 69 211 357 472 754 770 541 534 540 595 646 766 1063 1129 1186 1067 1131 1097 1138 1208 1335 1318 1384 1423 1318 1317 1568 1815 2066 1671 2226 2236 1641 795 786 764 845 1188 1290 2170 1667 1414 1474 1600 1459 1841 1888 1918 1892 2083 2092 2069 2036 1932 1442 1058 778 536 506 605 596 584 493
0 0 0 0 0 0 0 0 0 0 0 0 0 0 0 0 0 0 0 2 0 2 0 114 218 173 564 743 633 460 610 721 905 984 867 878 1044 1084 1092 996 943 966 1132 1245 1176 1094 1029 888 1101 1354 1780 1933 2017 2204 2130 1931 1829 2266 2236 1628 1320 1135 1681 1605 1340 1182 1387 1499 1427 1637 1377 1626 1984 1887 1832 1750 1590 1338 1142 793 765 592 445 592 470 475
0 0 0 0 0 0 0 0 0 0 0 0 0 0 0 0 0 0 0 0 0 2 0 0 139 294 628 785 751 713 764 870 978 1097 966 842 984 984 958 968 928 891 1042 1007 1005 1062 1050 881 700 517 1370 1669 1923 1841 1530 1429 1648 1922 1978 2154 1336 813 945 1646 1894 1323 1631 1294 1486 1584 1301 1127 1323 1487 1352 1450 1270 1184 1147 920 789 605 591 582 751 492
0 0 0 0 0 0 0 0 0 0 0 0 0 0 0 0 0 0 0 5 0 6 0 0 21 19 734 1084 866 830 838 912 963 916 863 804 962 876 897 942 914 796 924 918 1002 986 939 1179 806 1410 1792 1304 921 1115 1390 1404 1271 871 1224 2178 2151 2291 2518 1955 1736 2052 1500 1211 1275 1232 1298 1152 1336 1188 1204 1234 1047 875 907 873 736 706 904 841 596 722
0 0 0 0 0 0 0 0 0 0 0 0 0 0 0 2 3 0 3 0 0 3 17 47 82 528 764 975 818 848 982 929 874 851 851 720 831 1016 943 954 987 774 890 1001 1000 994 998 840 882 883 896 811 909 963 1179 1381 1329 1160 944 1519 1870 2670 2280 3124 2002 1466 1479 1984 1753 1420 2009 2223 1688 1387 1471 1533 1372 971 809 779 782 715 712 1356 784 627
0 0 0 0 0 0 0 0 0 0 0 0 0 0 0 0 1 3 2 0 0 0 103 352 242 663 744 784 739 990 909 879 895 880 844 701 611 738 833 915 934 730 711 830 826 920 899 878 811 775 767 638 502 728 857 694 985 1176 1146 1681 2007 2348 2945 3019 2326 2066 3179 2772 2239 1773 2094 2039 1791 1588 1478 1253 1212 1114 1248 1716 1182 1242 754 887 1098 888
0 0 0 0 0 0 0 0 0 0 0 0 0 0 0 0 0 1 0 10 14 0 84 301 327 664 650 812 911 898 849 752 760 792 716 587 466 361 444 438 538 636 612 846 783 742 786 800 697 716 623 781 887 700 609 680 811 1070 1180 1411 1738 2012 2282 2493 2432 1766 3020 3224 2617 2125 1994 2212 1895 1659 1154 1554 1561 1557 1519 1502 1912 1621 1283 1440 1147 1087
0 0 0 0 0 0 0 0 0 0 0 0 0 0 0 0 0 0 0 0 318 326 176 311 517 530 525 863 933 853 796 788 804 699 675 474 390 363 431 474 517 666 574 469 593 619 563 657 651 578 615 512 646 696 804 796 1079 1014 706 1078 1266 1367 1921 2430 2464 2450 2592 3033 3073 3072 2794 2701 2713 2380 2224 2346 1694 1559 1406 1391 1856 1841 1533 1176 912 1191
0 0 0 0 0 0 0 0 0 0 0 0 0 0 0 0 0 0 0 86 323 356 348 664 790 781 820 985 971 850 745 724 684 611 522 389 260 237 239 366 437 499 558 540 454 378 432 494 542 534 455 485 551 528 760 852 1044 1151 836 767 1508 1225 1562 1603 1927 2000 1889 2356 2415 2916 2698 2615 2539 2444 2401 2370 2694 2305 1995 1455 1460 1931 1744 1975 1696 1620
0 0 0 0 0 0 0 0 0 0 0 0 0 0 0 0 0 0 0 277 284 305 377 685 1142 1026 939 954 955 857 754 626 599 623 551 436 294 200 189 307 310 303 371 441 351 353 338 468 441 496 499 522 529 531 614 833 966 996 962 980 1088 1602 1582 1538 1467 1542 1260 1540 1812 2183 2569 2525 2390 2290 2099 2007 1982 2134 2107 2386 2309 2315 1957 1374 1350 1649
0 0 0 0 0 0 0 0 0 0 0 0 0 0 0 0 0 0 25 13 369 362 494 350 859 1019 808 976 907 773 652 604 636 538 460 308 204 126 88 90 106 206 292 259 322 376 420 437 459 456 503 577 643 607 668 872 1049 1024 899 890 891 1090 1370 1388 992 842 877 1420 1642 1472 1457 1702 1901 1814 1636 1694 1686 1625 1541 1451 1516 1818 2134 2160 1842 2081
0 0 0 0 0 0 0 0 0 0 0 0 0 0 0 0 0 13 14 99 52 163 252 598 1047 997 1006 924 828 716 661 581 508 511 271 207 122 59 33 22 30 121 178 218 205 337 367 432 439 343 400 474 529 597 709 906 906 960 962 928 952 920 993 980 1023 686 766 1017 1235 1338 1028 1210 1350 1528 1485 1205 1165 1286 1291 1474 1356 1406 1682 1938 1969 1695
0 1 0 0 0 0 0 0 0 0 0 4 0 5 0 0 0 7 26 92 77 123 541 801 1012 1154 1003 839 804 760 692 562 460 515 348 142 88 71 32 15 23 84 115 134 214 326 320 349 323 311 345 462 516 717 819 876 816 765 752 748 784 912 830 892 853 927 847 681 678 776 526 1125 1395 1372 1211 1058 1095 1239 1353 1019 1184 1390 1427 1540 1623 1603
2 8 0 0 0 0 0 0 0 0 4 40 83 21 12 0 4 2 10 77 70 434 773 867 874 770 784 806 772 684 606 520 483 406 364 363 170 81 40 19 15 71 117 197 228 214 256 395 422 287 338 438 511 542 517 500 548 549 568 572 702 741 808 777 798 845 842 801 877 561 872 817 848 840 1024 874 899 930 858 1008 1211 1193 1269 1390 1545 1566
0 0 10 0 0 0 0 0 0 0 132 47 56 14 17 0 0 1 249 149 190 278 507 712 676 885 937 828 717 631 584 512 435 423 454 456 372 144 38 5 0 6 20 86 195 225 329 200 360 324 319 379 465 435 478 529 475 511 452 444 538 584 623 659 627 658 619 662 752 645 582 702 828 953 811 763 802 790 886 985 1011 996 1018 1111 1208 1233
0 4 0 0 0 0 0 1 0 77 31 84 31 0 0 15 25 63 318 212 372 407 392 537 825 944 835 797 713 589 510 400 329 267 321 333 285 258 170 89 35 3 4 34 139 252 273 335 217 303 311 355 366 362 370 390 351 363 380 409 493 477 507 504 545 602 629 640 622 603 592 581 582 586 641 656 719 782 907 921 1001 1017 1008 973 886 856
0 0 16 0 0 0 0 0 0 0 12 99 33 0 0 0 11 196 299 221 397 542 493 526 672 818 714 628 668 604 499 417 334 316 314 255 225 119 47 3 2 0 5 21 48 346 327 219 172 227 256 335 345 345 382 422 371 357 322 347 397 431 430 446 506 532 585 565 586 527 571 566 490 452 467 488 457 525 533 523 497 480 571 619 626 601
7 0 57 0 0 0 0 0 0 0 342 39 114 24 4 0 0 6 221 158 204 594 588 592 560 558 627 635 615 660 572 371 334 324 411 210 71 39 5 0 0 0 0 0 0 13 79 333 134 142 84 199 208 332 337 333 323 255 285 417 438 446 442 378 292 299 310 261 294 270 274 216 168 136 107 90 127 155 221 284 373 371 41 1 0 1
6 4 0 0 0 0 0 0 0 28 313 178 196 12 0 0 0 0 2 250 189 291 698 687 651 640 669 691 634 632 407 401 123 414 345 123 61 0 0 0 0 0 0 0 0 56 5 136 266 201 253 292 288 353 375 340 298 339 367 433 356 396 422 233 156 276 237 220 117 138 226 190 168 151 110 103 100 80 115 191 210 188 25 1 1 1
33 20 0 0 0 0 0 0 0 26 116 461 173 19 0 1 10 0 2 128 344 323 615 681 713 676 765 768 657 664 687 563 168 396 531 205 109 8 0 0 0 0 0 9 0 0 0 119 20 45 30 61 271 314 329 309 328 348 362 350 312 324 342 358 233 245 89 178 158 158 133 111 110 100 49 27 32 70 97 113 134 143 44 8 2 0
1 0 0 0 0 0 0 0 0 276 370 182 0 21 1 4 19 169 190 312 306 352 436 613 750 844 847 704 603 608 610 716 570 561 374 225 10 0 0 0 0 0 0 0 0 0 0 0 2 22 9 11 153 214 244 282 334 348 359 327 312 307 286 300 285 247 294 308 240 112 62 90 99 76 50 41 25 16 77 108 80 38 126 102 77 0
13 0 0 0 4 0 0 0 0 49 48 104 87 152 237 82 310 300 334 372 348 381 464 539 543 524 686 563 781 725 721 650 463 394 268 243 102 0 0 0 0 0 0 0 0 0 0 0 0 0 12 12 15 26 37 51 99 212 257 267 275 305 317 299 256 222 218 211 169 152 7 4 4 10 14 16 10 4 4 6 13 11 2 0 0 0
0 0 0 0 24 3 2 0 53 57 49 133 127 277 431 254 220 484 367 298 405 419 450 522 468 451 585 729 748 741 749 683 470 267 136 0 0 0 0 0 0 6 0 0 0 0 0 0 0 0 0 17 54 71 91 60 72 93 36 8 23 101 122 131 140 119 177 188 162 175 142 49 0 0 0 0 0 0 0 0 0 0 3 1 0 0
4 0 646 185 7 9 10 14 2 29 220 136 238 356 390 530 677 438 282 305 454 474 464 474 537 687 882 839 762 732 678 544 398 268 68 0 0 0 0 0 0 0 0 0 0 0 0 0 0 0 0 0 9 53 93 147 178 169 98 78 50 9 9 29 18 0 0 0 0 68 165 148 125 0 0 0 0 0 0 0 0 0 0 0 0 0
67 394 467 361 31 328 330 208 223 227 98 214 246 172 254 420 74 163 358 403 442 470 446 428 542 859 959 914 842 784 695 614 470 326 112 4 0 0 0 0 0 0 0 0 0 0 0 0 0 0 0 0 0 1 75 41 91 279 160 85 125 115 107 8 8 66 0 0 0 0 0 0 0 0 0 0 0 0 0 0 0 0 0 0 0 0
177 122 279 42 225 26 39 53 284 45 95 199 165 538 355 134 88 324 438 556 610 632 618 386 656 868 854 877 814 830 746 648 563 355 174 0 0 0 0 0 0 0 0 0 0 0 0 0 0 0 0 0 0 0 0 17 55 108 117 102 29 41 61 214 59 3 0 0 0 0 0 0 0 0 0 0 0 0 0 0 0 0 0 0 0 0
170 67 0 15 224 0 408 427 240 126 259 116 137 136 140 476 497 549 580 550 643 774 755 891 1033 976 712 736 730 827 690 590 462 267 0 0 0 0 0 0 8 43 111 70 180 76 13 0 0 0 0 0 0 0 0 0 0 20 68 91 102 99 77 127 1 0 0 0 0 0 0 0 0 0 0 0 0 0 0 0 0 0 0 0 0 0
196 0 0 52 1 386 290 342 358 306 245 128 132 161 288 486 440 417 315 476 661 757 882 946 1036 1035 999 978 870 774 674 557 394 29 0 0 0 5 88 125 139 108 108 209 435 397 128 101 79 34 15 3 0 0 0 0 0 0 0 12 32 38 76 187 83 0 0 0 0 0 13 0 0 0 0 0 0 0 0 0 0 0 0 0 0 0
0 0 72 2 0 99 180 324 258 59 157 159 120 382 685 615 574 454 382 322 368 786 782 914 873 929 1135 1155 990 681 715 587 322 12 0 44 116 140 179 182 177 244 225 235 268 319 399 410 306 251 188 91 48 23 14 14 11 8 8 8 39 49 38 56 24 0 0 0 0 0 0 0 0 0 0 0 0 0 0 0 0 0 0 0 0 0
30 216 31 47 27 68 356 567 922 749 507 411 556 700 525 544 556 485 472 405 388 184 426 837 838 946 1084 1108 890 778 706 372 87 45 133 172 154 230 228 195 270 269 248 293 288 356 420 444 453 419 390 224 187 201 208 145 75 50 100 144 62 34 0 0 0 0 0 0 0 40 22 0 0 0 0 0 0 0 0 0 0 0 0 0 0 0
Wind_Speed
nan nan nan nan nan nan nan nan nan nan nan nan nan nan nan 12 8 12 14 18 21 15 10 14 12 10 11 11 8 7 3 5 9 10 11 11 10 5 2 nan nan nan nan 6 7 12 9 11 7 7 5 6 7 9 10 10 10 14 14 13 12 11 11 12 11 11 9 8 6 7 9 8 8 10 11 12 11 13 15 14 13 13 13 12 11 10
nan nan nan nan nan nan nan nan nan nan nan nan nan nan nan 16 10 15 16 20 18 13 9 13 13 8 7 7 6 4 2 4 7 8 10 11 10 nan 5 6 3 5 nan 6 7 12 12 9 12 8 4 5 7 10 11 9 9 12 14 13 12 10 10 11 11 11 10 8 9 9 10 7 7 10 11 11 11 12 14 11 10 11 11 10 10 9
nan nan nan nan nan nan nan nan nan nan nan nan nan nan nan 13 15 15 18 20 12 10 10 11 11 8 8 4 3 2 2 2 4 6 10 14 10 8 12 10 8 4 3 6 6 9 10 10 13 8 6 6 8 9 10 10 10 10 11 11 11 11 11 11 12 12 10 10 9 8 7 9 8 10 11 11 11 11 8 8 8 8 8 8 9 9
nan nan nan nan nan nan nan nan nan nan nan nan nan nan nan 9 18 11 15 20 8 5 11 8 7 6 6 4 4 4 5 3 6 8 11 13 13 13 11 12 4 3 4 6 5 10 10 9 9 8 6 7 8 7 8 10 11 9 9 9 10 11 10 11 12 12 11 13 14 11 9 11 10 10 10 10 10 6 4 6 7 7 6 8 8 9
nan nan nan nan nan nan nan nan nan nan nan nan nan nan nan nan 13 21 18 18 12 9 17 14 8 5 6 9 6 6 8 8 11 12 13 15 16 18 19 11 9 7 6 4 5 8 9 10 9 9 6 8 8 6 7 9 9 7 10 10 10 10 10 9 10 10 10 8 6 10 11 9 3 7 8 7 6 5 5 5 6 6 6 7 8 9
nan nan nan nan nan nan nan nan nan nan nan nan nan nan nan nan 15 22 21 25 17 11 10 18 8 4 7 9 9 7 8 8 10 14 13 15 16 20 24 25 26 22 nan 6 5 6 11 12 9 9 8 8 8 5 5 7 8 10 8 9 8 8 8 7 8 8 7 7 7 9 9 8 7 8 9 8 6 5 6 7 5 5 6 7 9 9
nan nan nan nan nan nan nan nan nan nan nan nan nan nan nan nan nan 19 29 22 20 12 7 6 nan 9 13 15 10 8 9 8 9 14 14 16 15 17 20 17 15 16 20 15 7 6 12 10 10 10 8 7 9 5 6 6 6 11 9 7 9 6 6 6 6 5 5 6 7 8 8 9 9 10 10 9 8 6 6 5 4 5 7 9 9 8
nan nan nan nan nan nan nan nan nan nan nan nan nan nan nan nan nan nan nan nan nan 16 12 6 11 14 14 13 6 6 11 8 10 11 13 18 19 18 18 15 15 14 12 17 17 nan 9 11 12 10 10 8 8 6 7 5 7 11 9 7 7 4 6 5 4 3 5 5 7 7 7 8 9 10 10 10 9 8 7 5 5 6 8 8 8 6
nan nan nan nan nan nan nan nan nan nan nan nan nan nan nan nan nan nan nan nan nan nan 12 4 18 20 12 9 9 9 15 11 10 10 5 10 17 18 16 13 15 15 11 8 12 13 8 9 13 12 11 11 9 6 7 6 7 9 9 8 7 4 5 6 4 3 4 5 6 6 6 6 8 8 10 10 9 9 6 6 6 6 6 6 7 6
nan nan nan nan nan nan nan nan nan nan nan nan nan nan nan nan nan nan nan nan nan nan nan 8 14 23 15 13 12 10 11 13 12 11 9 5 5 12 14 14 16 17 14 14 11 13 nan 11 13 13 11 12 10 8 4 7 9 8 8 8 8 5 4 6 5 3 3 3 5 5 5 6 7 6 7 5 8 6 5 6 7 5 4 4 5 5
nan nan nan nan nan nan nan nan nan nan nan nan nan nan nan nan nan nan nan nan nan nan nan nan 14 24 19 12 11 12 8 12 13 11 13 14 9 6 9 12 13 15 17 16 13 11 13 11 12 12 13 13 12 9 7 10 10 8 7 8 8 6 5 6 5 5 3 3 3 4 4 5 5 4 5 4 5 4 3 4 6 4 4 3 3 3
nan nan nan nan nan nan nan nan nan nan nan nan nan nan nan nan nan nan nan nan nan nan nan nan nan 32 27 18 13 10 11 13 13 10 10 13 14 13 11 9 11 14 16 14 13 15 13 nan 7 14 12 14 12 11 11 12 12 9 6 6 7 5 6 6 5 6 3 3 2 3 3 4 4 2 4 3 3 3 3 3 3 3 2 3 3 2
nan nan nan nan nan nan nan nan nan nan nan nan nan nan nan nan nan nan nan nan nan nan nan nan 29 31 30 22 16 14 13 15 14 12 12 11 10 13 14 13 11 11 15 15 16 16 16 13 13 12 14 13 12 12 13 13 12 11 7 6 6 6 6 6 6 5 3 2 1 2 2 4 3 3 4 2 1 1 1 1 1 1 2 2 3 2
nan nan nan nan nan nan nan nan nan nan nan nan nan nan nan nan nan nan nan nan nan nan nan 12 27 24 21 21 17 19 16 19 19 15 16 14 13 13 15 17 15 12 14 17 15 19 18 22 16 16 15 13 11 13 14 15 14 12 9 7 6 5 6 6 5 5 4 3 2 0 1 3 4 4 5 4 3 1 0 0 0 1 1 1 0 1
nan nan nan nan nan nan nan nan nan nan nan nan nan nan nan nan nan nan nan nan nan nan 13 17 17 12 19 15 15 20 23 24 21 19 16 14 12 10 11 14 16 15 15 17 20 20 22 22 26 19 15 13 12 13 16 15 14 14 12 9 7 6 5 7 5 5 4 3 4 2 2 2 3 5 5 5 5 4 2 1 2 2 1 1 1 1
nan nan nan nan nan nan nan nan nan nan nan nan nan nan nan nan nan nan nan nan nan nan 14 18 15 12 16 14 17 19 21 22 21 20 17 14 12 11 12 13 12 13 15 20 22 24 24 26 26 30 19 17 14 15 15 16 15 14 14 12 9 7 6 6 6 5 4 4 5 5 4 4 4 4 5 5 5 5 4 2 1 1 1 2 1 1
nan nan nan nan nan nan nan nan nan nan nan nan nan nan nan nan nan nan nan nan nan nan 18 18 19 17 17 16 19 18 20 19 17 19 20 18 16 15 18 19 17 16 13 15 21 24 28 29 30 29 28 21 16 14 15 16 17 17 17 14 12 10 8 7 7 6 6 5 6 5 5 6 6 5 5 5 5 5 5 4 2 1 1 2 3 1
nan nan nan nan nan nan nan nan nan nan nan nan nan nan nan nan nan nan nan nan nan nan 18 20 20 17 15 19 18 17 17 20 20 21 21 23 23 22 20 19 19 18 17 15 17 22 28 30 30 29 27 28 21 15 20 20 21 25 23 18 15 13 10 9 8 8 7 6 6 7 6 6 6 6 6 6 6 5 5 4 3 3 2 2 3 2
nan nan nan nan nan nan nan nan nan nan nan nan nan nan nan nan nan nan nan nan nan nan 15 18 nan 16 15 nan 15 20 24 22 24 24 22 26 25 24 24 27 25 23 21 16 14 20 25 26 28 26 31 30 29 25 25 27 26 25 24 24 26 22 15 11 9 9 9 9 8 8 7 6 7 7 7 6 6 6 5 4 3 3 3 1 3 4
nan nan nan nan nan nan nan nan nan nan nan nan nan nan nan nan nan nan nan nan nan nan 17 17 20 19 12 8 10 17 19 18 22 24 22 20 19 17 16 17 12 17 18 19 18 15 17 21 24 28 30 30 29 27 26 27 25 24 24 24 22 21 20 23 16 13 10 10 10 9 10 8 9 9 8 6 7 6 5 4 5 3 4 3 2 2
nan nan nan nan nan nan nan nan nan nan nan nan nan nan nan nan nan nan nan nan nan nan nan 20 22 19 13 13 13 16 19 16 16 19 20 19 13 13 12 11 14 17 19 20 18 14 13 16 23 26 26 28 30 28 24 24 23 22 23 22 22 21 20 21 19 16 19 17 11 11 11 10 10 8 8 9 8 8 6 5 6 5 4 7 4 3
nan nan nan nan nan nan nan nan nan nan nan nan nan nan nan nan nan nan nan nan nan nan nan nan 25 23 18 18 14 16 18 17 14 14 16 16 15 12 14 14 18 18 20 23 22 19 17 16 19 20 22 25 30 31 30 28 26 24 21 20 19 20 19 20 21 18 16 15 17 12 12 12 12 10 9 7 9 10 9 7 5 9 8 6 5 5
nan nan nan nan nan nan nan nan nan nan nan nan nan nan nan nan nan nan nan nan nan nan nan 29 29 21 20 20 21 19 19 17 14 12 14 14 14 12 13 15 17 19 22 23 24 23 23 21 19 17 22 25 29 34 35 34 29 28 27 24 19 19 19 22 21 19 19 18 17 15 15 18 20 19 19 18 19 21 21 20 19 16 12 9 7 7
nan nan nan nan nan nan nan nan nan nan nan nan nan nan nan nan nan nan nan nan nan nan nan nan 29 22 20 21 23 20 20 17 14 12 16 18 15 11 12 16 20 21 21 21 20 23 22 20 19 22 24 27 30 32 34 35 36 35 29 27 23 23 25 23 20 19 20 21 20 19 21 20 19 19 15 11 15 15 15 15 13 14 15 18 19 18
nan nan nan nan nan nan nan nan nan nan nan nan nan nan nan nan nan nan nan nan nan nan nan nan nan nan 22 22 23 21 22 20 17 15 21 23 20 17 15 18 22 25 26 27 27 24 23 23 24 24 25 28 26 27 29 33 37 38 35 33 31 28 25 23 22 24 25 24 22 22 19 19 19 18 16 13 15 18 17 17 17 17 15 14 12 9
nan nan nan nan nan nan nan nan nan nan nan nan nan nan nan nan nan nan nan nan nan nan nan nan nan 28 27 24 24 24 26 24 20 19 22 25 22 18 18 19 22 24 25 25 29 30 30 30 30 30 30 27 24 25 25 27 33 37 36 32 29 29 27 26 25 26 27 25 23 21 18 18 20 21 19 18 18 17 15 16 16 17 18 18 15 14
nan nan nan nan nan nan nan nan nan nan nan nan nan nan nan nan nan nan nan nan nan nan 28 23 25 25 24 25 26 25 25 24 22 21 23 24 25 22 19 18 19 23 24 24 25 29 29 33 32 30 29 26 25 25 24 25 29 33 35 32 31 31 29 28 28 29 27 26 28 25 22 20 20 20 21 22 21 19 18 19 20 20 20 19 19 18
nan nan nan nan nan nan nan nan nan nan nan nan nan nan nan nan nan nan nan nan nan nan nan 22 24 24 22 25 26 27 26 27 26 24 24 27 28 26 23 20 21 23 26 24 22 27 27 30 28 26 27 27 26 26 26 26 25 26 27 25 22 26 31 30 29 29 28 27 27 27 25 23 22 22 23 23 24 21 20 20 20 20 21 20 19 21
nan nan nan nan nan nan nan nan nan nan nan nan nan nan nan nan nan nan nan nan 29 27 28 20 25 27 25 26 28 27 27 29 29 28 26 28 30 30 27 25 22 21 24 29 27 25 26 28 28 26 25 25 26 28 30 25 22 22 19 21 16 20 28 33 35 34 31 28 29 32 31 29 27 27 25 23 23 21 20 21 22 22 20 18 19 22
nan nan nan nan nan nan nan nan nan nan nan nan nan nan nan nan nan nan nan nan 40 34 31 29 30 28 28 30 31 30 30 31 29 25 25 27 31 30 27 25 24 22 23 27 30 29 27 29 32 31 28 26 24 25 26 25 23 22 19 20 19 20 22 26 32 36 39 38 34 34 33 31 29 28 26 26 27 27 24 22 23 25 24 25 26 25
nan nan nan nan nan nan nan nan nan nan nan nan nan nan nan nan nan nan nan 38 43 33 30 32 33 30 27 32 34 31 31 31 29 27 27 26 28 30 27 26 24 24 23 23 27 31 30 30 33 34 32 29 26 25 26 26 27 28 26 22 19 19 20 20 23 26 31 34 30 33 34 32 32 30 29 28 29 30 29 27 27 27 28 27 27 27
nan nan nan nan nan nan nan nan nan nan nan nan nan nan nan nan nan nan nan nan 31 27 26 26 28 25 25 30 32 31 31 30 29 25 24 25 28 29 nan nan 24 24 25 25 25 27 30 30 31 32 32 30 30 27 26 27 28 29 26 20 19 21 22 23 25 23 24 23 24 28 33 35 35 33 31 31 32 32 31 29 28 30 31 30 30 28
nan nan nan nan nan nan nan nan nan nan nan nan nan nan nan nan nan nan nan nan nan 27 27 26 21 25 28 28 29 27 29 28 27 24 25 26 27 nan nan nan nan 25 24 25 24 24 25 28 30 31 29 28 29 27 26 26 27 28 28 26 25 27 28 28 27 25 23 22 20 23 27 31 34 34 35 36 35 33 33 33 32 31 31 32 33 31
nan nan nan nan nan nan nan nan nan nan nan nan nan nan nan nan nan nan nan nan nan 29 24 25 27 28 28 28 29 28 27 26 25 23 24 25 nan nan nan nan nan nan 24 23 24 25 26 27 29 30 29 26 27 26 25 25 27 27 29 29 28 28 28 29 28 25 25 27 26 24 24 26 30 33 34 37 38 37 34 33 33 32 32 32 32 32
nan nan nan nan nan nan nan nan nan nan nan nan nan nan nan nan nan nan nan nan nan 32 32 29 27 26 27 28 29 29 28 27 26 26 24 24 25 nan nan nan nan nan 23 24 25 27 27 27 29 31 31 31 30 30 30 28 27 28 29 28 28 27 27 27 27 25 23 25 28 30 30 29 28 28 31 35 39 40 40 38 36 35 35 34 34 34
nan nan nan nan nan nan nan nan nan nan 12 nan nan nan nan nan nan nan 34 31 30 29 30 27 25 27 29 30 29 27 28 29 27 25 25 24 24 26 nan nan nan nan nan nan 24 26 28 29 30 31 33 31 31 31 31 29 27 28 27 27 27 24 23 23 24 25 25 26 28 31 33 33 31 29 31 35 40 42 41 39 38 38 37 38 38 37
nan nan nan nan nan nan nan nan nan nan nan nan nan nan nan nan nan nan 27 26 26 27 28 28 28 28 28 29 29 29 29 28 26 23 23 25 25 25 26 nan nan nan nan nan 26 28 29 31 33 31 33 35 33 31 31 29 29 27 24 25 24 24 22 21 22 22 23 25 27 28 31 34 35 33 31 31 36 42 43 41 40 40 39 42 44 44
nan nan nan nan nan nan nan nan nan nan nan nan nan nan nan nan nan 26 26 23 24 30 28 29 28 27 28 27 29 29 28 27 24 20 20 23 24 26 nan nan nan nan nan nan nan 27 29 32 36 36 35 38 37 32 27 26 27 25 25 24 23 24 24 23 22 21 21 22 23 24 26 29 31 34 32 29 34 42 44 42 42 44 44 45 45 46
nan nan nan nan nan nan nan nan nan nan 19 nan 20 nan nan nan nan nan 25 18 16 27 27 28 27 25 26 27 27 26 23 22 20 20 17 21 nan nan nan nan nan nan nan nan nan nan nan 31 38 37 nan 34 35 34 33 29 27 27 28 26 24 23 22 20 19 19 16 16 18 18 18 19 20 22 25 nan 31 39 45 46 44 45 nan nan nan nan
nan nan nan nan nan nan nan nan nan nan 24 21 18 nan nan nan nan nan nan 16 17 24 27 28 28 26 25 26 26 24 23 22 21 19 18 20 nan nan nan nan nan nan nan nan nan nan nan 29 32 33 32 37 36 33 33 33 31 28 27 26 24 25 23 21 19 17 13 12 13 13 11 11 14 15 18 21 nan nan 36 40 40 37 nan nan nan nan
nan nan nan nan nan nan nan nan nan nan 22 21 21 nan nan nan nan nan nan 19 22 26 27 27 27 25 25 26 24 24 19 20 22 22 19 22 21 nan nan nan nan nan nan nan nan nan nan 27 nan nan nan nan 40 39 38 35 33 29 26 24 24 24 23 22 22 21 nan 17 16 14 13 14 16 19 nan nan nan nan nan 29 29 25 nan nan nan nan
nan nan nan nan nan nan nan nan nan 23 22 25 nan nan nan nan nan 22 19 24 27 26 25 26 27 26 25 24 23 24 23 24 25 23 22 20 nan nan nan nan nan nan nan nan nan nan nan nan nan nan nan nan 42 42 42 39 36 32 28 26 26 23 20 21 22 22 21 21 18 16 nan nan nan nan nan nan nan nan nan 28 nan nan 25 22 nan nan
nan nan nan nan nan nan nan nan nan nan nan 24 nan 30 26 nan 19 21 24 26 25 24 27 26 26 25 25 24 26 28 27 26 25 24 21 18 18 nan nan nan nan nan nan nan nan nan nan nan nan nan nan nan nan nan nan nan nan 30 28 28 26 23 23 23 20 19 19 20 20 18 nan nan nan nan nan nan nan nan nan nan nan nan nan nan nan nan
nan nan nan nan nan nan nan nan nan nan nan 27 28 26 22 23 23 24 26 26 24 25 26 27 25 25 25 27 28 27 27 27 24 22 19 nan nan nan nan nan nan nan nan nan nan nan nan nan nan nan nan nan nan nan nan nan nan nan nan nan nan 24 22 20 21 21 19 18 20 20 19 nan nan nan nan nan nan nan nan nan nan nan nan nan nan nan
nan nan 19 18 nan nan nan nan nan nan 24 28 27 24 24 23 24 23 26 28 27 23 23 26 25 25 27 28 28 28 27 25 24 21 nan nan nan nan nan nan nan nan nan nan nan nan nan nan nan nan nan nan nan nan nan 33 31 29 nan nan nan nan nan nan nan nan nan nan nan nan 23 23 22 nan nan nan nan nan nan nan nan nan nan nan nan nan
nan 25 22 23 nan 24 21 18 18 19 nan 27 24 22 23 23 nan 22 27 30 27 25 24 25 25 26 26 26 28 25 25 25 24 20 19 nan nan nan nan nan nan nan nan nan nan nan nan nan nan nan nan nan nan nan nan nan nan 31 26 nan 24 21 21 nan nan nan nan nan nan nan nan nan nan nan nan nan nan nan nan nan nan nan nan nan nan nan
26 30 28 nan 25 nan nan nan 20 nan nan 28 22 18 21 23 nan 24 30 28 27 25 24 24 25 26 26 25 26 27 26 24 22 19 17 nan nan nan nan nan nan nan nan nan nan nan nan nan nan nan nan nan nan nan nan nan nan 31 28 25 nan nan nan 22 nan nan nan nan nan nan nan nan nan nan nan nan nan nan nan nan nan nan nan nan nan nan
24 nan nan nan 25 nan 22 19 22 23 25 31 27 21 18 22 28 27 28 29 28 27 26 25 26 26 26 25 25 27 25 22 21 19 nan nan nan nan nan nan nan nan 18 nan 21 nan nan nan nan nan nan nan nan nan nan nan nan nan nan nan 27 nan nan 24 nan nan nan nan nan nan nan nan nan nan nan nan nan nan nan nan nan nan nan nan nan nan
24 nan nan nan nan 26 26 23 23 24 32 34 29 22 23 28 29 29 30 32 31 28 28 26 24 26 25 24 24 25 23 20 20 nan nan nan nan nan nan 15 16 17 18 20 20 22 24 25 nan nan nan nan nan nan nan nan nan nan nan nan nan nan nan 26 nan nan nan nan nan nan nan nan nan nan nan nan nan nan nan nan nan nan nan nan nan nan
nan nan nan nan nan nan 21 20 25 nan 25 27 28 25 27 29 31 30 28 29 30 31 29 27 24 24 25 22 23 24 22 20 21 nan nan nan 17 17 16 16 16 16 17 18 20 21 22 24 26 28 29 nan nan nan nan nan nan nan nan nan nan nan nan nan nan nan nan nan nan nan nan nan nan nan nan nan nan nan nan nan nan nan nan nan nan nan
nan 22 nan nan nan nan 20 21 24 26 25 24 27 26 26 27 29 29 27 26 27 27 26 27 24 24 23 20 20 22 22 22 nan nan 20 19 18 18 17 16 15 16 16 16 18 18 18 20 23 26 28 30 31 32 33 34 nan nan 34 33 nan nan nan nan nan nan nan nan nan nan nan nan nan nan nan nan nan nan nan nan nan nan nan nan nan nan
Wind_Direction
nan nan nan nan nan nan nan nan nan nan nan nan nan nan nan 292 290 305 319 334 329 321 321 320 327 335 358 17 48 75 83 126 141 147 171 183 173 221 258 nan nan nan nan 305 316 303 317 306 305 314 335 333 325 317 316 326 336 333 337 344 0 14 12 21 21 21 18 21 40 74 71 79 85 85 80 79 90 89 99 93 93 98 102 111 112 120
nan nan nan nan nan nan nan nan nan nan nan nan nan nan nan 296 306 338 337 333 329 311 320 316 311 333 359 11 35 63 74 117 144 156 174 196 201 nan 163 204 265 275 nan 301 283 303 308 312 312 312 328 339 323 321 314 322 329 333 337 343 355 8 24 40 36 23 21 27 32 38 54 76 83 87 87 87 91 87 90 92 96 102 106 108 116 123
nan nan nan nan nan nan nan nan nan nan nan nan nan nan nan 297 302 326 320 321 317 286 306 307 306 323 339 2 8 0 69 147 188 193 198 205 198 196 164 233 192 255 218 279 278 295 304 308 314 315 324 331 321 322 318 316 324 333 341 348 352 2 22 45 48 45 33 30 33 39 48 54 66 76 77 83 81 84 92 91 100 109 107 115 116 124
nan nan nan nan nan nan nan nan nan nan nan nan nan nan nan 308 306 303 318 311 300 288 308 305 286 314 316 302 297 283 279 243 236 225 214 215 195 209 190 194 188 274 237 298 283 286 305 303 307 308 320 316 321 325 320 319 325 336 348 352 350 1 20 41 48 54 50 28 26 36 45 48 45 57 67 78 84 110 108 90 102 111 106 112 115 116
nan nan nan nan nan nan nan nan nan nan nan nan nan nan nan nan 331 308 310 307 286 274 312 294 262 242 266 273 255 268 252 262 239 226 217 219 216 205 191 179 199 194 232 253 265 290 303 297 299 313 305 306 315 332 330 326 328 332 343 353 353 3 15 44 45 49 50 52 42 37 38 60 43 57 73 88 107 118 98 88 113 87 95 108 114 117
nan nan nan nan nan nan nan nan nan nan nan nan nan nan nan nan 296 301 299 289 272 284 330 315 263 266 280 272 273 246 250 257 242 231 217 219 219 220 213 209 185 190 nan 230 253 271 289 305 288 301 306 305 313 333 345 330 328 321 332 345 359 5 14 26 39 45 45 46 40 37 39 48 44 47 60 61 69 68 72 68 108 85 94 100 115 113
nan nan nan nan nan nan nan nan nan nan nan nan nan nan nan nan nan 311 317 304 280 287 347 346 nan 254 245 257 247 252 254 242 246 245 235 219 212 231 230 225 216 201 179 171 213 247 288 301 291 290 300 302 318 329 344 337 323 323 323 336 356 10 9 12 30 42 29 27 44 48 42 47 42 45 65 72 77 59 69 85 82 85 98 103 110 102
nan nan nan nan nan nan nan nan nan nan nan nan nan nan nan nan nan nan nan nan nan 270 268 350 239 265 261 258 257 280 279 270 260 262 241 219 208 219 233 221 222 210 209 192 163 nan 253 289 292 294 295 295 312 315 334 338 319 327 321 322 345 0 3 8 12 19 11 12 39 49 47 41 44 48 55 57 71 67 80 63 72 86 97 105 112 115
nan nan nan nan nan nan nan nan nan nan nan nan nan nan nan nan nan nan nan nan nan nan 272 313 279 254 254 246 258 282 291 283 296 286 245 209 219 221 232 225 203 204 203 214 189 171 248 280 287 281 289 290 305 299 322 336 314 327 323 313 330 341 354 3 352 1 358 2 35 43 37 42 50 53 54 55 61 63 78 55 74 86 97 103 114 129
nan nan nan nan nan nan nan nan nan nan nan nan nan nan nan nan nan nan nan nan nan nan nan 340 313 273 269 260 248 266 285 307 306 309 327 335 254 238 252 243 201 198 199 195 200 184 nan 269 281 278 281 284 281 281 282 294 302 321 324 313 322 333 325 346 341 337 348 3 23 35 39 31 46 51 64 60 53 70 68 42 58 84 86 88 99 106
nan nan nan nan nan nan nan nan nan nan nan nan nan nan nan nan nan nan nan nan nan nan nan nan 280 281 271 264 266 273 283 288 297 295 302 308 310 295 280 255 225 221 215 191 195 199 196 231 272 278 282 278 278 286 269 281 293 304 323 317 321 325 299 331 335 331 342 20 27 24 25 15 35 41 48 75 64 73 85 41 57 67 70 67 64 74
nan nan nan nan nan nan nan nan nan nan nan nan nan nan nan nan nan nan nan nan nan nan nan nan nan 256 266 262 267 268 273 291 294 304 323 323 319 322 317 286 256 245 226 200 196 211 202 nan 258 268 275 276 276 281 273 278 287 290 306 309 318 320 294 316 321 329 337 4 42 21 357 354 17 12 23 45 56 44 59 53 65 71 31 70 60 41
nan nan nan nan nan nan nan nan nan nan nan nan nan nan nan nan nan nan nan nan nan nan nan nan 271 240 241 263 286 297 298 287 288 277 301 320 315 308 319 315 291 254 234 225 224 231 214 208 260 257 266 276 264 268 276 278 284 284 289 301 307 332 283 311 302 319 326 324 12 30 331 346 350 331 346 354 21 78 30 32 88 83 22 36 32 38
nan nan nan nan nan nan nan nan nan nan nan nan nan nan nan nan nan nan nan nan nan nan nan 282 261 255 263 262 283 293 285 278 279 278 273 278 285 297 307 305 300 280 246 230 233 231 226 217 222 260 258 272 268 265 273 268 277 275 282 294 287 326 271 291 283 302 296 301 300 34 267 326 335 300 331 314 316 305 219 219 201 24 347 55 42 7
nan nan nan nan nan nan nan nan nan nan nan nan nan nan nan nan nan nan nan nan nan nan 250 259 241 259 273 270 285 281 284 287 283 281 282 286 286 277 297 302 299 289 257 243 231 230 229 227 220 223 256 273 265 266 268 262 268 265 277 279 272 285 266 288 285 274 287 265 271 258 238 244 297 289 311 305 297 290 268 190 177 192 281 293 106 111
nan nan nan nan nan nan nan nan nan nan nan nan nan nan nan nan nan nan nan nan nan nan 241 237 244 254 263 267 271 281 281 280 283 281 277 275 276 275 273 279 281 270 251 235 230 227 232 230 225 223 230 262 248 259 263 257 258 262 270 270 271 279 271 269 278 269 272 251 248 252 247 233 239 248 266 279 287 291 292 294 208 183 248 281 273 152
nan nan nan nan nan nan nan nan nan nan nan nan nan nan nan nan nan nan nan nan nan nan 240 243 249 251 266 251 269 272 271 274 276 272 258 245 242 243 245 247 249 254 250 235 226 229 234 232 231 232 222 228 244 252 260 255 250 253 258 260 257 261 244 247 261 266 247 241 238 251 245 242 239 237 244 253 274 283 295 294 304 269 259 291 304 358
nan nan nan nan nan nan nan nan nan nan nan nan nan nan nan nan nan nan nan nan nan nan 237 228 242 252 244 250 248 244 253 254 248 254 249 239 233 230 229 237 242 242 242 236 237 235 233 234 231 231 232 231 234 254 237 246 240 233 231 235 248 263 246 235 248 254 253 249 238 236 244 239 245 246 234 227 233 245 260 266 279 261 273 269 271 314
nan nan nan nan nan nan nan nan nan nan nan nan nan nan nan nan nan nan nan nan nan nan 257 262 nan 230 244 nan 256 247 243 241 246 244 238 230 227 228 223 226 224 226 233 235 241 237 238 238 236 235 234 230 229 227 232 242 246 247 247 241 220 206 225 239 246 235 244 248 237 231 243 234 235 241 242 233 231 237 231 239 258 252 272 287 239 276
nan nan nan nan nan nan nan nan nan nan nan nan nan nan nan nan nan nan nan nan nan nan 274 270 262 262 259 256 257 275 266 257 261 265 264 258 251 253 246 246 244 237 231 236 244 250 253 256 251 246 241 233 235 233 234 233 236 244 239 232 236 249 240 216 201 222 243 254 236 238 233 235 228 223 235 241 232 250 248 219 236 267 251 265 258 232
nan nan nan nan nan nan nan nan nan nan nan nan nan nan nan nan nan nan nan nan nan nan nan 271 259 258 262 255 247 255 262 261 264 277 291 281 278 278 277 258 249 244 238 232 233 238 238 249 252 248 247 240 237 242 236 243 243 241 240 237 235 239 245 258 260 234 211 202 241 241 246 247 242 232 221 222 228 239 247 237 218 244 260 245 256 265
nan nan nan nan nan nan nan nan nan nan nan nan nan nan nan nan nan nan nan nan nan nan nan nan 250 247 254 258 248 258 266 270 269 286 286 277 275 274 266 258 249 243 242 229 218 213 213 224 242 250 251 250 242 239 234 233 238 239 235 247 253 250 241 235 241 243 253 247 215 225 258 258 259 256 245 229 222 228 236 241 236 231 232 241 242 262
nan nan nan nan nan nan nan nan nan nan nan nan nan nan nan nan nan nan nan nan nan nan nan 243 247 240 247 251 259 257 263 273 275 277 277 273 261 246 255 258 255 248 243 229 216 216 213 214 219 234 244 244 244 240 240 235 230 236 239 242 248 245 241 242 242 236 243 247 249 229 232 243 238 238 234 229 229 220 210 208 211 211 218 230 236 243
nan nan nan nan nan nan nan nan nan nan nan nan nan nan nan nan nan nan nan nan nan nan nan nan 240 246 248 256 267 274 279 278 271 261 263 267 268 259 250 252 249 245 244 240 225 222 226 227 229 220 221 229 233 237 237 232 222 214 220 231 236 239 237 241 252 252 237 247 248 241 248 258 257 254 254 253 257 257 246 244 239 244 223 215 210 209
nan nan nan nan nan nan nan nan nan nan nan nan nan nan nan nan nan nan nan nan nan nan nan nan nan nan 258 265 274 282 284 279 273 268 269 278 277 265 247 244 246 244 239 234 225 223 225 228 228 230 229 233 236 237 242 242 232 222 211 213 225 229 232 234 245 245 237 243 244 237 239 260 266 267 266 261 243 242 248 251 245 244 235 234 244 258
nan nan nan nan nan nan nan nan nan nan nan nan nan nan nan nan nan nan nan nan nan nan nan nan nan 249 259 268 272 280 287 283 281 282 280 282 282 268 255 245 244 243 238 236 236 227 230 226 226 227 230 234 235 238 245 249 250 244 231 215 214 231 228 231 235 241 241 240 243 239 237 239 252 260 261 258 259 258 248 247 252 256 255 254 244 225
nan nan nan nan nan nan nan nan nan nan nan nan nan nan nan nan nan nan nan nan nan nan 248 244 262 265 269 276 276 277 278 281 281 275 272 275 275 269 261 255 251 249 246 238 235 239 228 228 225 226 230 233 230 232 233 241 252 249 241 226 221 223 232 235 235 232 235 244 244 237 231 235 244 252 250 246 248 246 244 246 252 256 260 259 261 255
nan nan nan nan nan nan nan nan nan nan nan nan nan nan nan nan nan nan nan nan nan nan nan 249 273 274 276 277 280 280 280 279 278 279 279 276 271 264 258 257 253 246 242 237 234 239 229 225 223 219 218 223 227 226 224 229 239 255 256 247 231 227 232 231 235 231 233 240 236 227 231 241 247 246 244 242 239 236 240 248 255 261 266 267 263 258
nan nan nan nan nan nan nan nan nan nan nan nan nan nan nan nan nan nan nan nan 273 277 284 277 278 278 278 279 278 279 281 279 281 283 284 283 278 271 262 255 252 249 245 239 230 237 244 236 226 218 212 214 219 224 223 223 234 242 255 265 256 246 234 227 230 238 242 242 232 228 235 245 246 241 238 236 234 230 236 242 245 249 255 262 252 246
nan nan nan nan nan nan nan nan nan nan nan nan nan nan nan nan nan nan nan nan 272 279 288 285 278 272 278 284 280 281 283 285 286 286 283 280 280 278 272 260 255 250 248 247 243 237 241 243 237 228 223 219 221 231 234 236 242 241 238 252 264 261 248 235 237 239 242 239 237 239 242 245 246 244 240 233 228 230 238 245 246 244 245 243 244 248
nan nan nan nan nan nan nan nan nan nan nan nan nan nan nan nan nan nan nan 266 267 273 279 283 279 272 268 276 280 281 281 282 283 282 282 281 280 278 275 270 261 251 248 249 248 245 241 240 240 236 231 229 233 239 245 250 253 255 248 248 251 258 255 252 248 245 243 246 237 240 242 245 247 247 245 241 237 239 242 246 246 244 244 244 243 246
nan nan nan nan nan nan nan nan nan nan nan nan nan nan nan nan nan nan nan nan 272 283 287 279 280 280 279 276 281 283 282 285 288 288 286 284 281 279 nan nan 257 250 246 242 243 245 245 242 240 238 236 237 241 245 247 249 256 258 259 257 249 249 254 259 265 245 232 238 242 239 239 241 243 247 248 246 243 243 244 245 244 244 243 244 242 242
nan nan nan nan nan nan nan nan nan nan nan nan nan nan nan nan nan nan nan nan nan 278 273 277 281 285 283 281 281 281 286 288 290 293 291 286 283 nan nan nan nan 255 245 237 237 240 240 240 241 242 242 240 239 244 248 253 256 258 258 253 248 251 254 260 262 262 251 245 242 237 236 240 242 246 249 249 249 249 247 245 244 244 245 244 241 242
nan nan nan nan nan nan nan nan nan nan nan nan nan nan nan nan nan nan nan nan nan 265 273 278 283 283 284 286 287 289 290 292 294 294 294 295 nan nan nan nan nan nan 256 248 240 237 234 240 241 242 241 239 242 245 255 255 257 259 260 258 255 254 255 255 258 258 255 252 251 247 242 242 245 247 251 252 250 249 252 253 249 246 247 246 246 247
nan nan nan nan nan nan nan nan nan nan nan nan nan nan nan nan nan nan nan nan nan 276 277 278 282 283 280 281 283 284 286 287 285 287 285 283 284 nan nan nan nan nan 255 250 246 240 235 239 241 239 236 238 241 245 249 250 253 257 258 259 258 254 251 250 252 252 251 250 247 246 246 246 248 248 245 244 245 245 245 247 248 248 247 246 246 246
nan nan nan nan nan nan nan nan nan nan 229 nan nan nan nan nan nan nan 251 250 263 276 281 280 281 281 282 283 283 286 289 287 286 285 286 282 278 277 nan nan nan nan nan nan 247 239 236 236 240 238 239 240 240 241 242 244 247 251 254 256 256 251 247 246 248 249 248 246 245 245 246 248 250 247 247 243 242 241 243 245 246 248 249 250 248 247
nan nan nan nan nan nan nan nan nan nan nan nan nan nan nan nan nan nan 264 259 264 277 281 282 283 282 285 289 289 289 290 291 290 291 293 293 286 277 271 nan nan nan nan nan 247 241 236 234 239 238 240 239 239 238 237 238 243 246 246 251 252 251 247 244 242 240 240 241 240 240 242 245 246 248 251 253 247 242 241 243 244 246 249 250 248 248
nan nan nan nan nan nan nan nan nan nan nan nan nan nan nan nan nan 265 263 260 262 277 279 283 287 289 289 291 292 295 297 292 294 300 302 299 296 288 nan nan nan nan nan nan nan 241 238 236 239 243 240 234 232 232 237 236 238 240 241 242 245 245 242 237 231 232 236 240 241 240 239 239 239 240 245 251 249 242 240 241 243 245 247 249 250 250
nan nan nan nan nan nan nan nan nan nan 220 nan 248 nan nan nan nan nan 260 260 261 277 285 290 293 293 294 296 297 299 297 295 296 303 304 305 nan nan nan nan nan nan nan nan nan nan nan 237 240 237 nan 236 231 232 235 232 229 233 237 235 234 234 235 228 225 229 230 228 233 235 227 223 229 235 239 nan 245 242 240 239 241 247 nan nan nan nan
nan nan nan nan nan nan nan nan nan nan 223 223 231 nan nan nan nan nan nan 274 268 275 285 289 292 291 292 294 297 298 298 300 307 309 309 303 nan nan nan nan nan nan nan nan nan nan nan 239 247 241 239 243 237 232 230 231 230 231 236 236 227 227 229 228 230 238 234 220 218 225 224 231 246 250 245 243 nan nan 242 238 237 240 nan nan nan nan
nan nan nan nan nan nan nan nan nan nan 228 228 228 nan nan nan nan nan nan 285 280 278 283 286 288 288 286 290 291 295 289 293 300 306 302 298 297 nan nan nan nan nan nan nan nan nan nan 243 nan nan nan nan 229 223 218 219 223 224 227 228 227 227 228 231 237 239 nan 238 242 245 251 255 259 257 nan nan nan nan nan 243 240 240 nan nan nan nan
nan nan nan nan nan nan nan nan nan 237 239 234 nan nan nan nan nan 272 270 273 279 283 285 288 286 283 284 287 285 287 293 288 292 294 297 299 nan nan nan nan nan nan nan nan nan nan nan nan nan nan nan nan 216 218 213 211 215 216 216 220 223 222 224 229 234 235 235 241 248 254 nan nan nan nan nan nan nan nan nan 251 nan nan 261 262 nan nan
nan nan nan nan nan nan nan nan nan nan nan 243 nan 234 239 nan 267 275 277 275 282 289 289 288 288 286 288 286 285 289 291 295 296 299 303 307 297 nan nan nan nan nan nan nan nan nan nan nan nan nan nan nan nan nan nan nan nan 212 212 218 216 216 220 223 228 236 240 244 250 253 nan nan nan nan nan nan nan nan nan nan nan nan nan nan nan nan
nan nan nan nan nan nan nan nan nan nan nan 243 246 249 248 262 276 278 278 281 283 288 286 284 285 290 290 288 290 291 295 296 297 300 300 nan nan nan nan nan nan nan nan nan nan nan nan nan nan nan nan nan nan nan nan nan nan nan nan nan nan 219 221 224 229 232 236 244 252 253 250 nan nan nan nan nan nan nan nan nan nan nan nan nan nan nan
nan nan 239 238 nan nan nan nan nan nan 250 260 264 263 266 268 272 281 277 282 285 285 283 284 289 289 287 290 292 295 295 298 300 300 nan nan nan nan nan nan nan nan nan nan nan nan nan nan nan nan nan nan nan nan nan 215 212 212 nan nan nan nan nan nan nan nan nan nan nan nan 252 248 246 nan nan nan nan nan nan nan nan nan nan nan nan nan
nan 233 238 234 nan 252 251 266 276 265 nan 273 274 276 277 274 nan 280 278 282 284 287 287 286 285 284 286 289 292 292 295 298 299 300 299 nan nan nan nan nan nan nan nan nan nan nan nan nan nan nan nan nan nan nan nan nan nan 213 213 nan 223 228 232 nan nan nan nan nan nan nan nan nan nan nan nan nan nan nan nan nan nan nan nan nan nan nan
228 228 233 nan 241 nan nan nan 256 nan nan 272 272 269 271 275 nan 271 276 283 283 285 283 284 285 288 290 290 292 295 297 300 301 302 291 nan nan nan nan nan nan nan nan nan nan nan nan nan nan nan nan nan nan nan nan nan nan 217 218 222 nan nan nan 241 nan nan nan nan nan nan nan nan nan nan nan nan nan nan nan nan nan nan nan nan nan nan
226 nan nan nan 243 nan 250 253 257 259 266 274 278 275 275 264 265 266 272 280 283 284 286 284 284 286 289 289 292 294 300 299 297 293 nan nan nan nan nan nan nan nan 268 nan 261 nan nan nan nan nan nan nan nan nan nan nan nan nan nan nan 227 nan nan 236 nan nan nan nan nan nan nan nan nan nan nan nan nan nan nan nan nan nan nan nan nan nan
238 nan nan nan nan 237 249 251 254 252 260 272 275 274 271 271 271 269 269 272 280 282 283 286 289 290 289 290 293 296 298 297 290 nan nan nan nan nan nan 281 276 274 272 270 267 262 256 249 nan nan nan nan nan nan nan nan nan nan nan nan nan nan nan 237 nan nan nan nan nan nan nan nan nan nan nan nan nan nan nan nan nan nan nan nan nan nan
nan nan nan nan nan nan 252 258 263 nan 264 272 281 276 271 272 273 272 269 271 273 281 286 287 289 289 287 287 291 297 296 293 288 nan nan nan 292 289 285 283 281 279 275 274 275 273 266 256 251 247 246 nan nan nan nan nan nan nan nan nan nan nan nan nan nan nan nan nan nan nan nan nan nan nan nan nan nan nan nan nan nan nan nan nan nan nan
nan 233 nan nan nan nan 241 251 255 263 265 271 272 275 276 274 274 274 274 274 274 279 280 290 287 285 286 286 286 292 293 292 nan nan 289 289 292 292 291 291 286 282 282 280 278 278 274 266 257 254 252 250 247 246 248 250 nan nan 245 245 nan nan nan nan nan nan nan nan nan nan nan nan nan nan nan nan nan nan nan nan nan nan nan nan nan nan